Wind_Speed
23 23 23 23 22 22 22 22 22 22 22 22 22 22 21 21 21 21 22 23 23 23 23 23 23 23 24 23 22 21 21 20 19 20 20 19 19 20 21 21 18 18 19 19 21 23 24 24 24 22 20 17 15 13 12 10 9 8 6 5 4 4 5 6 7 8 9 6 13 18 16 14 13 11 10 9 7 7 6 4 1 2 5 6 7 7 8 9
23 24 24 23 23 23 23 23 23 23 23 23 23 23 23 23 23 22 22 23 24 25 25 25 24 24 24 24 24 23 22 21 20 21 20 19 21 21 22 22 20 20 20 18 20 21 22 23 24 23 21 19 16 14 12 10 9 9 7 5 4 3 4 3 5 6 7 9 13 17 16 12 11 11 10 9 7 7 6 3 1 1 4 5 7 8 8 9
23 24 24 24 24 24 24 24 24 24 24 24 24 24 25 25 24 24 24 24 24 25 26 26 26 25 25 25 25 25 24 22 22 21 19 20 22 22 23 23 21 21 20 19 19 20 20 21 22 22 21 19 17 15 13 11 10 9 8 6 4 3 4 2 4 5 6 10 11 13 13 11 9 10 9 8 7 5 5 3 1 1 3 4 5 7 8 8
23 23 24 24 24 24 24 25 25 24 24 24 24 25 25 26 26 25 25 25 25 25 26 27 27 27 27 26 26 26 25 25 23 21 20 22 22 22 24 23 22 21 20 19 19 19 18 17 19 20 20 19 18 16 14 13 10 8 8 8 5 5 4 1 2 2 5 8 10 9 10 9 8 8 8 8 7 6 5 4 3 2 3 5 6 6 8 8
23 23 24 24 24 25 25 25 25 25 25 25 25 25 26 26 27 27 26 26 26 26 26 27 28 28 28 28 27 27 27 26 24 23 22 22 22 22 24 23 22 21 19 19 19 18 17 15 15 16 18 19 19 17 16 15 12 8 8 9 7 6 4 4 3 3 5 8 10 9 8 8 9 8 7 8 7 6 5 4 3 3 3 4 6 6 8 8
23 24 24 24 24 24 25 25 25 25 25 25 26 26 26 26 27 27 27 27 27 27 27 27 28 29 29 29 29 28 28 26 24 25 24 24 23 23 23 22 22 21 20 20 19 18 17 15 14 15 16 18 19 19 18 17 14 10 8 8 9 7 5 5 5 5 6 8 9 10 9 8 9 8 7 7 7 6 5 4 4 3 4 4 5 5 6 7
22 23 24 25 25 25 25 25 25 25 24 25 26 26 27 27 27 28 28 27 27 27 27 28 28 29 29 30 30 30 29 26 25 27 27 25 25 24 24 22 21 21 21 21 21 19 18 16 15 15 16 18 20 21 20 18 16 13 10 8 9 8 7 7 6 7 7 8 9 9 9 9 9 9 9 9 8 7 5 4 5 4 3 4 4 4 5 6
21 22 24 25 26 26 26 25 25 25 24 25 25 26 27 27 28 28 28 28 28 28 28 28 28 29 29 30 30 31 30 27 25 27 27 27 27 26 25 23 22 22 22 23 23 21 20 18 17 16 17 18 20 22 21 19 17 16 11 8 10 9 9 9 9 9 9 8 9 9 10 9 8 9 10 10 8 7 6 5 6 5 3 3 4 5 4 5
21 22 23 25 26 27 27 27 27 26 25 25 26 26 27 28 29 29 29 29 29 29 29 29 28 29 30 30 31 31 30 28 26 27 29 28 28 28 27 25 24 24 24 24 23 22 21 20 19 18 19 20 21 22 23 21 20 19 12 7 10 11 10 11 11 11 11 8 8 10 11 10 9 10 11 11 9 9 8 6 6 5 4 4 4 4 4 4
21 22 23 24 25 26 27 28 28 28 27 26 26 27 28 28 29 30 30 30 30 30 29 30 29 29 30 30 31 31 29 29 28 29 30 29 28 29 29 27 25 25 25 24 24 23 22 21 21 21 21 21 19 19 20 23 23 21 16 8 8 11 11 11 11 12 13 10 7 8 10 10 10 10 10 10 11 11 9 7 7 6 5 5 4 4 4 3
21 21 22 23 24 25 26 27 28 29 28 28 27 28 28 29 30 30 31 31 32 32 31 31 30 30 30 29 31 31 29 29 28 29 32 31 29 29 30 29 27 27 26 25 24 24 23 23 23 23 23 20 17 16 19 22 21 20 19 13 9 10 11 12 12 11 12 10 8 8 8 10 11 10 11 11 12 12 10 9 8 8 7 5 4 4 5 4
22 21 21 22 23 24 25 27 28 29 29 29 28 28 28 29 30 31 32 32 32 33 33 32 32 31 31 30 31 30 29 29 28 30 34 33 31 30 30 30 29 28 28 26 25 25 25 25 25 25 24 20 19 19 19 20 21 18 18 16 13 11 12 12 12 10 11 11 9 9 8 9 10 11 11 12 12 12 11 12 10 9 9 7 6 6 6 6
23 22 21 21 22 23 24 25 26 28 29 29 29 29 29 29 29 30 31 32 33 34 34 34 34 33 32 32 32 29 28 30 29 31 35 34 32 31 31 31 30 30 30 28 27 26 26 26 25 26 25 22 21 20 19 22 24 20 17 17 15 13 13 14 13 12 11 13 12 10 8 8 9 11 12 12 13 12 12 13 13 11 10 9 7 7 7 7
24 23 22 22 22 22 23 24 24 25 27 28 29 30 30 29 29 29 30 32 33 34 34 35 35 35 34 34 33 29 30 31 30 32 35 35 34 33 32 32 31 31 31 30 28 27 27 26 25 26 23 20 20 16 13 17 22 22 20 19 17 15 15 14 14 13 13 14 14 11 8 8 9 11 13 14 14 13 13 14 14 12 11 11 9 9 9 8
26 24 23 22 22 22 23 24 24 25 26 27 28 29 30 30 30 30 30 31 32 34 35 36 36 36 36 35 34 31 32 33 30 32 35 35 36 35 34 33 32 32 32 32 31 29 28 26 25 25 22 19 19 16 11 12 18 22 20 19 18 17 16 14 13 14 15 15 15 12 9 9 9 9 11 14 15 15 15 16 16 15 13 12 11 10 10 9
26 25 24 23 23 23 23 24 24 25 26 27 29 29 30 30 30 30 30 30 31 33 34 35 36 37 37 37 35 33 35 35 32 33 35 36 36 36 35 35 34 33 33 34 33 31 29 27 26 25 21 20 21 19 15 13 17 20 19 17 18 18 17 15 14 14 15 15 15 13 11 11 11 9 9 12 16 17 16 17 17 16 15 13 13 12 11 10
26 25 24 24 23 23 23 24 24 24 26 27 29 30 30 30 30 31 31 31 31 32 33 34 35 37 38 38 36 36 38 37 34 34 36 36 36 36 37 36 35 34 34 35 34 33 32 30 27 24 20 20 22 22 20 18 17 18 17 14 15 18 18 15 13 13 13 14 16 15 13 12 12 11 10 10 15 17 16 17 17 17 16 14 13 13 12 11
27 25 24 24 24 23 23 23 23 23 24 26 28 29 30 30 30 30 31 31 32 32 33 34 35 36 38 39 38 39 40 39 37 35 36 37 36 37 37 37 37 36 35 35 35 35 34 30 27 25 23 23 24 24 23 20 17 16 13 8 5 10 16 17 13 13 14 14 16 16 13 13 13 12 10 8 13 18 18 18 19 19 17 15 14 14 14 13
27 25 25 24 23 23 23 23 23 23 23 24 26 28 29 30 30 30 30 31 32 32 33 34 34 35 37 38 39 41 41 39 37 37 37 38 37 37 38 38 38 37 36 36 36 35 34 31 30 30 28 27 26 25 23 21 20 19 14 8 4 8 12 12 13 16 17 15 14 13 13 13 14 14 11 9 11 16 18 19 20 20 18 17 16 15 15 14
26 26 25 23 23 22 22 22 22 22 22 22 24 26 28 29 29 29 30 30 31 32 32 33 34 35 37 37 39 42 41 40 39 39 39 39 38 38 38 39 39 38 37 36 36 35 34 33 33 32 29 28 27 24 24 24 22 23 20 14 6 5 15 17 15 17 17 15 13 12 14 16 15 15 14 13 11 13 17 19 21 22 20 19 17 15 14 14
26 25 25 24 22 22 21 21 21 20 20 20 21 23 25 27 27 27 27 28 30 31 31 32 33 35 36 37 39 41 42 41 41 40 40 40 39 39 39 39 39 38 37 37 36 35 35 35 34 33 30 29 27 25 26 26 24 24 23 21 17 11 12 22 24 19 15 15 15 13 15 18 18 16 14 14 14 14 16 19 22 24 22 20 17 14 13 13
25 25 24 23 22 21 20 19 19 18 18 18 18 20 22 24 24 24 24 24 26 28 29 31 32 34 36 38 39 39 41 41 41 42 41 39 39 40 40 39 40 38 38 37 37 37 37 36 35 33 31 30 28 27 28 29 27 24 23 25 24 15 15 22 26 24 19 18 18 16 16 19 20 18 16 15 15 14 14 18 25 25 22 21 19 16 15 14
24 24 23 22 21 20 19 18 17 16 15 15 15 16 18 19 20 21 20 21 22 24 26 28 29 32 35 37 37 37 39 40 40 43 42 41 40 41 41 40 40 39 39 38 37 38 38 36 35 33 32 31 30 28 29 31 31 26 25 30 32 20 15 18 21 23 21 20 19 18 17 17 19 19 17 13 15 16 13 15 23 25 22 23 21 18 17 15
23 23 22 21 21 20 19 18 16 15 14 13 12 12 13 15 16 16 16 18 19 20 23 25 26 29 32 36 38 36 38 40 40 42 42 41 41 42 42 41 41 40 40 39 38 39 38 36 34 33 33 33 31 29 30 33 33 31 30 32 34 27 17 16 18 19 19 20 19 16 16 17 17 19 18 13 13 15 13 13 18 22 22 23 22 20 18 16
22 21 21 20 20 19 19 18 17 16 14 12 11 10 10 11 12 13 13 14 16 17 18 19 21 25 27 32 37 37 37 39 40 41 41 40 42 43 42 41 41 41 39 39 39 39 38 36 35 34 34 34 33 31 30 33 34 36 34 29 31 29 17 14 16 17 17 17 17 13 12 14 15 17 19 15 11 10 13 15 17 20 22 22 22 21 20 18
21 20 20 19 18 19 19 18 18 17 14 12 10 9 9 9 9 10 10 11 16 15 12 14 15 18 21 27 34 33 32 33 33 37 38 37 42 43 42 41 40 40 39 39 39 39 39 37 35 35 35 35 35 32 32 33 37 40 35 27 30 29 14 10 12 15 15 13 12 11 11 13 12 13 16 15 11 8 11 14 15 17 20 23 24 24 22 21
20 19 18 18 18 19 19 19 18 17 13 10 9 7 7 7 6 8 10 12 15 12 8 9 8 12 19 22 26 25 26 28 27 34 36 33 40 43 42 42 40 39 38 39 41 40 38 36 35 36 35 35 36 35 34 36 40 39 33 31 33 29 18 11 12 14 13 11 9 11 14 15 13 11 13 14 12 10 10 12 14 16 19 25 27 26 24 21
19 18 18 17 18 19 19 19 18 17 14 10 8 7 7 8 7 8 10 10 11 10 7 6 5 10 16 14 14 17 23 24 21 29 33 29 36 40 38 39 40 40 39 39 40 40 38 37 36 36 35 36 37 36 35 36 38 35 34 36 31 24 20 13 12 15 15 14 13 12 13 15 16 13 10 10 10 10 10 11 13 13 17 24 26 24 21 19
18 17 17 17 18 19 19 19 18 16 13 11 9 9 10 10 8 8 10 9 8 8 7 6 7 11 12 10 11 14 18 18 17 26 31 27 31 36 35 36 38 40 42 41 39 38 36 35 35 34 35 37 36 34 34 35 35 33 37 40 29 20 18 14 13 19 16 18 16 13 12 14 17 16 11 7 7 8 9 9 10 11 13 18 21 21 21 20
16 16 16 17 18 19 19 19 18 15 12 10 10 12 11 8 7 6 7 4 4 6 5 5 10 11 9 8 9 11 14 15 18 25 27 27 32 32 32 36 38 40 43 44 43 41 37 33 33 34 34 34 33 33 37 39 37 34 37 41 36 29 24 20 21 24 21 22 20 14 13 15 17 18 15 11 9 8 8 8 9 10 11 13 16 19 19 19
15 15 15 16 17 18 18 18 17 14 10 10 11 12 8 3 2 4 7 3 2 1 4 4 9 7 7 7 6 10 13 11 13 20 19 21 29 31 30 33 36 38 42 43 44 43 40 34 32 34 34 33 35 39 42 42 40 36 34 39 41 34 26 23 24 25 24 24 21 17 17 17 19 21 19 18 16 11 8 9 10 10 11 12 15 15 15 17
14 15 15 16 16 16 17 17 15 12 9 10 12 9 5 4 6 8 9 5 4 5 6 3 8 3 4 6 8 12 13 10 10 15 13 12 21 28 31 31 33 36 36 37 37 37 36 31 25 25 32 36 38 41 43 41 39 36 32 36 38 28 22 24 23 24 26 25 24 21 17 18 23 23 21 20 19 13 10 12 13 13 12 13 15 16 15 16
13 14 15 16 16 16 18 17 15 12 9 11 11 5 6 8 6 6 8 7 5 2 10 6 7 5 1 4 8 9 11 13 12 11 9 9 13 22 28 31 32 31 27 26 27 27 28 26 20 17 25 35 40 40 40 38 37 38 36 36 35 26 23 28 27 27 28 25 25 23 16 19 24 23 21 19 18 15 14 15 15 15 14 14 16 18 19 19
11 14 15 16 15 15 17 16 14 10 9 11 8 2 3 6 4 2 5 6 3 2 8 10 2 2 9 14 10 7 7 12 11 10 7 6 8 14 19 25 30 27 22 21 23 24 24 26 28 26 25 33 39 40 38 34 33 37 36 34 34 29 26 31 33 32 31 27 24 23 23 25 23 21 21 19 19 19 19 18 17 16 16 16 16 18 19 19
10 13 14 15 15 15 16 16 13 9 8 9 5 1 1 3 2 2 3 5 8 7 3 5 5 5 9 9 8 9 8 12 11 5 5 8 4 4 7 15 24 25 20 22 27 30 30 28 27 30 27 25 26 30 35 33 29 31 35 35 37 34 29 29 27 23 22 22 22 22 27 30 27 25 24 23 24 24 22 20 20 18 17 17 17 17 17 17
9 12 13 14 14 14 15 15 11 7 7 7 3 1 3 1 4 1 3 5 10 10 6 7 8 13 11 5 5 9 13 18 16 8 7 10 9 10 11 12 21 25 21 24 28 29 33 31 24 24 25 21 18 19 28 34 29 27 33 37 38 34 28 23 17 12 12 17 22 25 29 32 32 30 29 27 26 25 23 21 20 21 21 20 20 20 19 16
8 11 13 13 13 12 12 12 9 6 7 7 4 3 4 3 4 2 2 6 8 10 8 6 8 15 19 16 12 11 14 17 16 15 15 15 15 18 21 21 25 28 27 28 29 30 34 34 29 27 27 23 22 20 25 31 28 25 29 34 35 31 25 22 20 17 15 18 22 25 27 28 28 28 28 27 25 24 23 21 21 21 21 22 22 23 23 20
7 10 12 12 12 10 11 12 9 6 6 6 3 4 5 3 1 1 2 6 7 8 9 9 11 14 16 19 18 15 16 16 15 18 19 22 23 25 27 29 31 33 32 31 30 30 32 31 30 29 24 21 24 24 27 33 30 26 26 31 34 31 27 28 28 23 22 22 24 26 26 27 29 28 28 27 25 24 24 24 24 23 21 21 21 22 24 24
7 8 10 11 10 10 11 11 10 7 5 4 3 4 6 4 3 2 3 5 5 7 9 10 13 14 11 13 14 13 13 15 19 21 18 20 25 28 30 32 34 34 33 33 33 32 31 31 32 30 24 22 24 25 30 35 33 29 27 30 36 34 31 32 31 27 25 24 25 28 28 31 32 30 33 33 30 29 28 26 25 23 21 21 19 18 20 21
6 7 8 9 9 9 10 10 10 7 4 3 4 5 5 4 4 3 2 4 5 7 9 9 11 13 12 10 11 12 10 8 17 27 24 20 22 26 29 30 32 33 30 32 35 34 33 34 33 31 29 27 23 25 35 36 30 27 26 28 35 37 34 32 30 29 28 24 23 28 28 29 29 29 33 34 33 33 31 27 26 25 22 21 21 19 18 18
5 6 8 9 9 10 10 9 10 8 4 4 4 3 4 5 4 4 3 3 4 5 7 6 6 8 10 11 11 14 14 9 14 24 25 22 21 24 29 30 30 31 29 31 34 34 33 36 34 31 33 30 19 24 40 41 28 24 25 27 33 38 38 34 30 29 29 26 25 27 26 25 27 29 30 29 29 31 30 26 25 25 23 23 22 22 21 19
5 6 7 7 8 9 9 9 10 10 7 5 5 4 5 5 4 4 3 3 4 5 6 5 5 5 5 6 8 13 16 14 14 17 18 18 20 24 30 32 33 33 31 32 34 31 30 35 35 31 34 32 22 24 39 42 33 27 28 28 27 30 34 35 31 27 25 27 29 29 28 27 29 32 33 34 32 30 28 26 23 22 23 23 22 22 23 22
4 5 6 6 6 8 8 8 9 10 9 8 6 4 4 5 4 4 3 4 5 5 4 4 4 5 5 6 6 10 17 17 14 15 16 15 18 22 29 35 37 34 30 30 32 30 30 36 38 32 32 32 25 21 30 38 40 35 33 32 26 20 24 31 32 27 23 28 31 31 31 31 31 31 31 34 35 32 29 26 23 23 24 25 24 23 23 22
4 4 5 5 6 7 7 7 8 9 9 9 7 6 5 5 4 4 4 4 5 5 5 4 4 5 6 7 5 6 14 20 19 17 16 15 14 16 22 30 36 36 31 30 32 32 34 37 36 30 29 28 23 19 20 29 40 41 37 36 30 22 22 29 33 30 26 29 31 33 34 31 31 31 30 31 33 32 29 25 23 23 23 24 24 24 23 23
5 4 4 3 3 5 6 7 7 8 9 9 8 7 6 6 5 4 4 3 4 6 6 5 5 5 5 6 4 2 5 17 23 20 16 15 15 14 16 20 28 33 33 32 34 36 38 38 33 29 32 30 26 25 22 23 34 40 38 34 29 22 21 28 32 31 31 33 34 36 38 34 29 30 32 34 33 30 27 25 26 26 24 22 23 23 24 23
6 5 5 3 2 3 4 5 6 6 8 9 9 9 6 5 6 5 3 2 3 5 6 5 5 5 4 3 2 1 1 9 19 19 15 14 15 17 18 18 21 28 32 34 37 38 39 39 34 30 34 34 30 32 30 26 29 36 38 36 32 21 25 29 33 34 35 36 37 38 41 39 32 28 29 30 31 32 30 26 26 28 28 25 23 23 23 23
6 5 5 3 3 3 3 4 5 5 7 8 9 10 9 4 6 7 4 2 2 3 4 5 4 5 5 3 3 1 2 5 11 13 12 12 14 16 19 19 20 25 30 35 38 37 37 39 36 31 31 33 32 34 34 30 28 33 40 39 30 21 26 28 33 38 39 40 39 39 42 43 37 32 28 25 25 29 31 28 26 27 29 28 25 23 23 24
6 5 5 5 5 4 3 4 5 5 6 7 8 9 11 7 3 6 5 4 3 2 2 2 3 4 4 3 3 2 1 2 5 6 5 7 11 15 18 20 22 25 29 34 37 37 35 37 38 36 32 32 33 34 33 31 30 33 41 43 30 21 27 31 33 37 41 43 43 41 42 45 42 38 35 32 29 27 28 27 25 26 28 29 27 24 23 24
6 5 5 6 6 5 4 5 5 5 5 6 7 8 9 9 4 2 5 5 4 4 3 1 2 2 2 1 2 1 1 2 3 3 3 4 8 12 16 20 22 24 28 33 37 38 36 35 38 38 35 32 31 31 31 32 31 31 37 43 34 24 30 36 36 36 40 43 45 44 43 45 43 37 36 38 37 35 32 27 25 26 27 28 28 27 25 24
7 6 5 6 6 5 5 5 5 4 4 5 6 6 7 8 8 4 2 5 6 6 5 4 3 3 3 2 1 1 1 1 2 4 4 4 4 6 11 16 18 21 25 28 34 38 38 37 36 37 36 32 28 27 28 29 30 31 39 44 39 30 30 35 37 39 41 43 45 45 46 47 45 38 34 36 39 38 34 30 27 25 25 25 27 28 28 27
9 8 7 5 5 6 7 6 5 3 3 4 5 5 6 6 7 7 4 2 4 5 6 6 6 5 5 5 3 2 2 1 1 3 3 4 4 4 7 11 15 20 24 25 29 33 37 40 39 38 37 35 32 29 27 27 27 32 41 45 41 35 32 33 35 39 44 47 48 48 49 50 49 45 39 37 38 39 35 31 27 24 21 21 24 26 28 29
9 8 7 6 5 6 8 7 5 4 3 3 4 4 5 5 5 5 5 5 3 3 4 5 5 6 7 7 7 6 5 3 3 4 4 5 5 5 7 8 10 15 19 24 27 29 33 38 39 39 40 37 36 35 30 28 28 31 38 41 38 34 33 35 37 40 45 49 48 49 52 51 50 50 46 40 38 39 37 33 29 26 22 21 22 24 25 28
Wind_Direction
291 289 286 283 280 277 274 272 270 268 266 264 261 258 256 254 252 248 246 244 242 240 239 237 236 236 236 236 235 234 233 233 231 231 230 228 227 228 230 232 227 224 223 220 221 224 226 226 227 227 225 224 221 218 219 217 217 226 226 235 270 291 298 328 353 356 7 54 112 118 127 141 148 155 158 153 151 155 151 145 160 114 123 121 122 123 119 122
292 289 286 283 280 277 275 272 269 267 266 265 263 261 258 255 253 250 247 245 243 241 240 238 236 235 235 235 235 233 231 230 229 230 229 227 228 228 231 232 227 226 226 222 222 224 224 224 225 225 224 222 222 217 215 214 214 222 216 222 258 287 296 329 9 9 38 88 115 122 129 140 149 153 158 162 158 156 161 168 205 106 125 128 129 125 118 122
292 290 287 284 280 277 274 272 270 267 265 263 263 262 260 258 254 251 249 247 245 243 241 239 237 235 234 233 233 233 231 229 229 228 226 226 228 228 231 232 229 228 228 226 226 229 228 226 225 224 222 221 221 217 213 210 212 223 213 211 241 265 280 328 21 24 75 106 119 128 133 139 149 152 160 167 160 161 173 176 171 167 156 145 137 131 124 124
291 289 287 285 282 279 275 272 269 267 265 262 260 260 260 259 257 253 250 248 246 244 242 241 238 236 234 233 232 232 231 229 228 227 224 226 228 228 231 232 232 231 229 228 229 231 232 231 228 225 222 219 219 215 212 209 210 220 211 207 218 238 249 161 77 63 102 121 130 137 137 140 152 158 166 169 163 172 179 173 179 204 196 161 147 142 134 132
289 288 286 284 282 280 277 273 270 267 265 263 260 258 257 257 258 256 253 250 248 246 244 242 240 238 235 233 232 231 231 229 227 227 225 227 227 227 231 231 232 232 230 230 230 231 231 231 230 226 220 216 217 214 211 209 209 213 210 209 215 222 217 170 151 135 130 133 139 147 150 151 158 161 173 172 168 188 186 171 184 217 223 175 153 152 143 140
287 285 284 282 281 279 278 275 272 269 265 263 260 258 256 255 255 255 254 252 249 247 244 243 241 240 237 234 232 230 231 228 226 227 225 225 226 226 229 228 229 231 229 230 229 228 227 225 224 222 217 212 212 210 208 209 207 209 210 211 216 212 197 182 176 163 148 146 150 157 167 168 163 164 177 176 175 197 194 179 194 209 226 199 163 160 156 148
287 283 282 280 279 278 277 275 273 270 267 263 260 258 256 254 253 253 253 251 250 248 246 243 241 240 238 236 233 231 230 226 223 226 224 223 225 225 226 225 226 227 226 227 227 225 223 221 218 215 211 209 210 207 205 206 203 203 204 208 217 210 199 198 193 180 161 159 165 168 178 183 179 178 182 184 184 193 192 195 199 187 212 214 171 165 170 159
289 284 280 279 278 277 276 275 273 271 268 264 261 258 256 254 253 251 251 250 249 248 247 244 242 240 239 237 235 232 230 226 222 226 225 222 224 225 224 222 221 224 224 224 225 223 219 216 215 212 207 205 207 206 202 200 200 200 200 206 214 209 200 203 198 184 172 172 179 181 185 190 204 201 193 195 191 191 193 203 204 180 190 205 164 160 176 179
294 287 282 278 276 276 276 275 274 272 269 266 263 259 256 254 253 251 249 248 247 247 246 244 242 241 239 237 236 233 230 226 222 225 226 222 222 224 223 220 218 221 223 223 224 223 219 215 212 211 210 208 207 207 201 197 197 194 189 190 204 201 190 194 198 187 180 180 183 188 190 196 216 219 212 211 199 196 199 201 205 194 198 198 162 153 165 190
297 291 285 280 276 274 274 274 274 273 271 268 265 261 258 254 252 251 249 248 246 245 244 243 242 240 239 237 236 234 230 227 224 225 227 223 220 222 223 220 216 219 221 222 224 223 220 216 213 212 213 215 214 217 209 199 193 190 192 190 192 192 183 189 199 191 185 184 186 193 200 205 214 219 219 216 201 197 200 202 207 202 203 199 174 157 156 187
300 294 288 283 279 275 273 272 273 273 272 270 267 264 260 256 253 251 250 248 246 244 243 241 240 239 238 237 236 234 229 227 224 224 227 225 221 221 223 221 216 218 220 220 221 221 219 217 216 213 214 213 208 217 218 209 199 191 196 201 198 195 187 192 196 187 184 185 191 196 206 214 218 223 214 203 195 196 203 208 208 206 208 201 187 173 166 178
305 299 293 288 283 279 275 274 273 272 272 271 269 266 262 258 255 252 250 248 247 245 242 240 239 237 236 235 235 233 229 225 220 221 225 224 222 220 222 222 217 217 219 219 218 219 219 219 218 214 215 211 200 205 208 209 210 200 197 199 202 204 197 198 198 194 190 189 196 201 207 218 224 223 209 200 203 208 214 214 209 209 208 205 197 184 178 184
308 304 299 293 289 285 281 277 275 273 273 272 271 269 266 261 257 253 251 248 247 245 243 241 238 237 235 234 234 231 229 226 218 219 224 223 222 220 221 222 218 216 219 220 218 218 219 219 220 218 218 212 206 209 201 199 206 205 203 200 199 205 203 201 199 200 201 198 204 206 208 216 220 220 214 217 222 221 216 209 210 211 206 204 201 189 186 191
311 308 304 300 295 291 288 284 280 277 275 273 271 270 268 265 260 256 252 249 247 245 243 241 239 237 235 233 232 228 227 227 218 217 222 222 221 220 220 221 219 216 217 220 219 218 219 219 220 222 222 213 210 218 212 208 205 202 206 202 196 201 203 202 203 209 209 205 208 208 209 213 215 223 224 225 226 224 218 209 212 215 207 206 203 193 192 193
313 311 308 305 300 296 293 289 286 283 279 276 273 270 268 266 263 259 254 250 247 245 243 241 240 238 237 235 232 228 227 227 219 218 222 221 220 220 220 221 220 217 217 219 219 218 220 219 220 224 222 212 211 211 203 211 206 203 211 206 200 204 206 207 209 216 217 214 216 210 209 216 218 231 236 231 225 220 220 216 215 214 207 206 204 196 195 195
314 313 311 308 304 300 296 292 289 285 282 278 275 272 269 266 263 260 256 252 248 246 243 241 239 238 238 236 232 228 228 226 221 219 222 221 220 219 219 220 220 218 218 219 218 218 218 218 218 222 218 207 207 202 190 195 200 205 212 210 207 207 209 214 211 216 224 225 224 214 210 218 223 235 248 242 229 220 219 216 213 213 208 205 204 197 196 200
315 314 313 311 307 304 300 296 291 286 282 279 275 272 269 266 262 259 257 253 249 246 243 241 239 237 237 235 231 229 228 226 221 219 221 221 220 219 219 220 220 219 218 219 219 218 217 217 216 219 218 211 207 200 191 190 196 202 208 213 219 216 212 214 214 217 229 235 228 218 215 224 230 238 251 248 228 220 218 215 212 213 210 206 206 199 194 200
316 316 315 313 311 308 304 300 295 289 283 278 275 271 268 265 261 257 255 252 249 246 243 241 239 237 236 234 231 229 229 227 223 221 221 221 220 219 219 219 220 219 219 220 220 219 218 215 214 215 215 212 208 203 193 188 193 195 191 189 215 241 229 216 219 228 231 238 232 220 217 226 237 241 249 252 228 220 220 218 214 213 211 206 206 203 198 199
317 317 317 316 313 311 308 303 298 293 286 279 274 271 268 265 261 257 253 250 248 245 243 240 238 237 236 234 232 231 230 228 226 223 221 221 220 219 219 219 220 219 219 220 220 220 219 215 213 212 212 209 205 200 192 189 196 187 163 142 88 340 291 244 231 235 235 237 230 225 224 227 240 243 240 242 232 225 225 222 216 214 213 206 201 203 203 201
319 319 319 318 316 314 311 306 302 296 289 282 275 271 268 265 263 260 255 250 247 245 242 239 237 237 235 233 231 230 229 228 227 224 222 222 221 219 218 218 219 219 218 220 221 220 218 216 215 213 212 211 206 197 189 189 199 192 170 162 176 314 309 293 266 240 239 243 234 231 228 226 237 242 237 235 239 237 231 226 220 214 211 206 199 200 206 206
320 321 321 321 320 318 314 309 305 300 294 286 278 272 269 266 264 262 258 254 249 245 243 239 237 237 235 233 232 230 229 228 228 226 224 223 222 220 219 218 218 218 218 219 220 220 218 216 216 215 213 213 209 199 190 188 196 202 187 171 173 194 254 276 270 255 253 250 239 233 228 227 229 236 241 237 238 242 235 229 222 213 207 204 199 198 208 217
322 322 323 323 323 320 316 313 309 305 298 290 281 275 271 268 266 263 260 257 252 247 244 241 238 237 235 234 232 231 230 229 228 227 225 224 223 221 219 219 219 217 217 218 218 219 218 216 215 215 213 213 211 201 192 189 192 204 200 173 162 177 223 246 253 255 260 254 242 235 228 225 224 228 238 240 240 241 239 231 218 206 201 202 201 200 205 216
324 324 326 325 324 322 320 318 316 312 306 297 286 277 273 271 269 265 261 256 252 249 245 241 238 237 235 234 232 231 231 230 228 227 225 223 223 223 220 218 219 217 217 218 219 219 218 216 215 215 214 213 212 205 194 191 190 195 196 174 161 175 219 235 241 246 251 251 244 236 226 221 224 225 229 240 242 235 236 228 209 198 198 203 203 203 202 206
325 327 328 327 326 325 324 325 324 322 316 305 294 281 274 272 271 269 264 258 251 247 246 242 238 235 234 234 232 230 230 229 227 227 225 223 223 222 220 219 218 217 217 217 218 219 218 216 215 214 216 214 212 208 197 194 192 189 193 184 167 172 204 230 241 245 242 242 242 237 226 222 225 224 223 228 227 221 217 210 201 198 202 204 204 202 201 202
327 328 329 328 328 328 330 331 330 329 324 317 309 295 283 275 271 269 266 262 254 245 245 245 239 235 234 234 232 230 230 228 227 226 224 223 223 222 221 220 218 217 216 217 218 219 219 216 214 214 214 215 213 209 201 196 195 192 196 196 176 171 198 230 234 242 240 235 236 234 226 223 225 224 223 221 215 211 207 204 205 206 206 206 206 202 200 202
328 329 329 329 330 331 334 335 334 333 328 324 317 306 296 281 273 270 266 267 261 251 249 251 245 238 235 233 233 233 231 230 230 227 223 221 223 222 220 218 217 218 216 216 218 220 220 217 213 214 213 214 212 209 204 198 200 199 193 189 179 172 193 234 225 236 245 235 225 224 221 219 220 224 226 223 218 212 206 205 207 209 210 208 203 201 200 200
328 329 329 330 332 333 336 337 335 333 329 326 319 310 301 286 279 270 265 268 269 271 272 265 256 241 236 235 236 232 226 227 230 228 224 221 223 222 221 218 214 215 217 217 217 218 220 219 215 214 214 214 212 210 207 202 205 204 186 178 182 178 180 208 220 224 232 231 223 223 222 217 215 219 223 223 219 209 202 204 207 208 212 207 201 201 202 200
328 329 330 331 332 334 337 338 336 335 333 333 327 315 302 291 281 267 264 263 267 283 292 282 278 253 248 245 237 228 224 221 220 227 224 217 222 222 220 220 215 212 213 215 219 219 218 219 217 215 215 215 213 210 209 209 210 205 186 177 183 187 179 185 223 219 202 212 229 229 223 218 213 211 212 217 220 216 208 205 207 211 212 210 208 204 201 199
328 329 330 331 334 336 338 339 338 337 336 337 331 317 309 298 281 266 260 260 269 286 292 282 272 260 258 259 241 227 222 207 199 223 224 210 216 220 216 217 216 212 211 210 214 219 219 220 219 217 217 216 214 211 209 212 213 207 193 180 174 186 183 172 218 232 208 195 208 219 227 233 227 217 204 199 217 222 219 212 210 216 214 210 209 202 198 201
329 330 331 333 336 338 341 342 340 340 340 336 330 324 320 300 279 259 236 244 288 288 285 259 252 258 265 262 240 223 214 197 196 219 224 213 210 213 214 217 216 214 213 211 209 213 215 218 219 218 219 219 215 211 209 210 212 209 198 189 184 186 189 189 205 225 220 192 185 195 216 238 244 233 214 202 217 224 220 224 222 225 220 204 200 201 203 207
331 331 333 334 337 341 343 342 340 341 342 338 336 337 335 307 230 174 180 165 86 315 344 297 256 263 271 247 200 207 207 191 213 222 220 222 214 207 209 216 217 215 216 215 212 211 210 209 212 216 217 218 217 214 210 209 211 209 198 197 198 193 196 207 205 213 218 201 189 187 199 224 240 241 229 214 218 226 222 228 226 227 227 206 197 202 206 209
332 334 335 336 339 343 343 343 343 346 347 346 348 354 26 97 137 149 152 119 82 107 88 313 279 309 285 239 165 191 202 183 222 224 207 220 216 207 206 207 213 215 215 217 215 214 214 207 202 214 221 219 218 219 215 210 210 209 200 198 199 194 199 212 210 214 217 205 192 182 191 226 234 236 237 225 222 230 233 231 224 221 225 215 206 203 204 207
332 335 337 338 342 345 345 347 348 351 355 354 357 17 77 97 129 153 133 94 26 111 130 146 285 320 87 136 143 185 189 176 211 239 236 235 220 213 208 204 210 211 207 210 212 214 217 209 193 206 231 226 220 223 220 213 210 207 203 199 195 190 196 203 204 211 213 202 191 181 193 230 235 235 241 237 232 231 229 227 222 216 216 215 213 210 207 204
330 336 339 339 344 348 348 349 352 355 353 357 11 65 98 97 113 138 129 108 49 38 117 130 246 299 123 121 143 190 162 167 210 261 255 224 234 232 214 207 207 198 192 196 195 194 197 200 196 196 219 228 223 223 221 214 212 208 205 199 193 190 196 201 204 211 210 201 192 192 207 223 232 239 240 241 239 232 227 225 221 215 212 214 217 217 214 210
325 335 339 340 346 350 350 353 357 357 351 0 25 90 95 108 154 131 128 145 139 123 120 185 183 140 131 127 154 180 169 174 198 239 179 156 181 226 199 211 202 185 189 196 187 186 188 194 203 204 213 229 228 223 218 211 206 205 202 197 194 195 199 204 208 214 215 205 196 202 215 221 227 234 233 235 235 230 228 228 225 224 220 218 220 218 213 208
317 329 336 342 347 350 354 358 357 356 358 3 4 2 38 342 279 244 155 168 164 163 183 209 177 151 162 185 168 180 193 189 183 171 165 164 174 182 176 192 193 184 198 204 189 188 194 190 192 203 216 234 236 217 210 208 201 197 200 200 200 198 200 203 196 189 200 204 203 209 216 220 224 229 231 235 234 230 230 231 230 231 230 227 223 219 211 202
310 323 334 343 345 346 359 6 359 356 5 3 351 7 18 317 290 300 206 175 179 200 188 171 179 165 166 177 184 194 200 197 184 166 175 190 192 196 190 182 187 194 199 200 193 193 200 193 185 196 205 216 228 214 198 198 191 188 200 203 199 194 194 192 180 176 189 203 215 219 220 225 231 234 238 242 241 237 239 239 233 233 234 231 226 222 217 212
305 318 330 340 340 346 9 16 3 351 359 3 356 16 17 331 305 17 240 190 186 214 196 179 193 183 176 185 188 191 192 187 176 171 191 207 201 199 196 185 190 199 194 192 195 196 200 194 186 193 193 198 219 214 198 195 183 177 195 200 195 190 188 184 179 184 191 200 220 226 221 226 234 239 242 242 240 240 245 244 237 236 236 231 229 226 223 221
297 312 326 332 337 356 18 21 6 349 338 340 336 356 14 358 329 338 256 229 232 219 201 206 208 197 198 197 179 179 191 181 174 184 205 213 203 203 202 193 193 199 195 193 196 195 192 186 184 187 181 189 211 205 195 197 190 181 188 195 195 195 192 185 182 185 186 192 219 231 226 225 228 235 240 237 237 239 241 239 233 233 234 233 234 231 226 225
298 311 320 326 341 6 20 16 0 348 327 339 2 358 1 1 338 320 267 246 257 224 205 215 215 204 202 192 167 166 184 192 190 197 204 205 205 209 207 200 197 199 199 197 200 199 189 181 182 183 178 186 200 191 186 190 191 193 194 192 194 198 199 194 187 188 185 187 215 233 237 235 232 237 238 233 234 236 237 237 232 230 232 236 238 233 229 229
303 310 312 328 352 6 12 5 353 357 9 11 14 3 354 8 355 319 278 249 264 240 217 218 232 220 199 192 188 176 177 197 202 199 204 207 206 207 207 206 201 199 199 199 202 203 195 186 183 180 180 185 184 176 182 182 178 194 208 202 197 200 203 199 193 190 188 191 210 224 236 242 239 238 237 233 237 237 233 233 233 231 234 238 238 233 230 233
301 307 312 333 356 4 5 360 357 7 13 355 346 352 1 4 349 325 293 244 256 258 240 242 262 258 223 215 219 200 194 201 193 190 202 207 203 205 208 208 206 201 198 201 203 202 199 198 195 187 183 187 184 176 183 181 172 185 207 206 200 202 203 201 197 193 196 207 215 217 224 233 234 237 238 239 243 241 231 229 232 233 234 235 234 230 229 233
296 308 310 324 353 4 3 2 7 13 4 342 327 321 333 344 341 334 304 241 238 255 253 247 247 244 245 253 254 232 228 229 213 196 199 201 200 203 206 209 211 206 201 204 207 203 198 199 203 203 198 197 197 189 186 183 179 184 197 200 196 192 194 200 199 193 205 222 222 218 222 228 230 233 235 235 238 238 230 230 236 236 233 235 238 238 235 235
276 298 298 313 350 357 357 10 16 13 3 348 330 302 288 303 322 329 309 263 242 251 250 241 248 242 227 233 258 255 234 233 231 222 217 218 214 205 204 209 212 211 208 208 206 202 198 197 198 200 198 194 191 185 187 192 189 188 192 194 187 172 180 197 197 193 210 226 222 222 229 232 229 232 235 236 239 239 233 230 232 233 234 236 240 242 241 239
260 272 265 277 339 342 349 9 10 3 1 359 352 329 289 270 283 306 317 287 244 241 244 243 246 246 230 225 248 324 224 219 224 227 230 239 238 225 215 213 211 211 210 207 203 200 200 200 195 185 178 175 171 171 182 198 198 197 196 184 167 169 202 213 205 204 219 224 218 220 229 231 229 231 235 236 238 240 236 228 225 228 233 234 233 233 235 236
248 260 257 258 301 327 345 356 352 354 354 357 4 352 322 269 255 269 293 298 247 227 237 247 238 233 246 248 232 41 110 203 214 220 227 237 238 227 221 219 213 207 205 202 199 197 198 201 200 187 177 174 169 167 177 192 198 201 198 176 160 188 226 224 217 219 223 223 219 217 222 225 227 227 226 228 233 237 238 232 225 226 230 234 235 230 228 230
241 259 266 263 272 301 333 336 335 349 347 348 1 358 348 319 247 245 248 264 275 238 229 240 237 229 236 248 247 236 118 169 195 206 216 225 225 217 213 215 212 207 205 201 196 195 196 197 197 192 183 180 174 170 179 192 195 198 195 178 171 211 231 220 220 224 223 223 222 219 219 222 225 225 225 228 230 232 234 234 231 231 232 235 238 234 230 229
237 254 268 264 257 276 310 317 325 341 341 342 351 355 357 357 281 240 237 236 255 268 246 233 242 243 236 232 245 258 202 173 175 179 193 206 209 208 207 207 208 208 207 203 199 197 193 193 195 192 186 181 176 175 182 190 195 200 195 183 180 214 228 219 220 225 224 224 223 220 219 220 223 230 234 236 237 237 237 236 234 234 236 237 237 237 234 230
235 248 268 272 266 272 288 298 313 327 332 337 342 348 359 8 8 255 238 242 249 257 263 281 286 287 287 255 246 253 232 212 187 181 186 179 190 204 209 208 208 209 207 205 205 203 199 199 200 196 191 186 180 182 187 190 198 200 190 186 192 213 221 215 217 223 225 224 223 221 220 220 224 233 237 236 239 244 245 243 240 238 238 238 237 238 237 233
225 233 247 264 271 271 274 283 299 318 331 337 337 339 350 7 19 19 259 247 256 260 263 271 277 284 296 301 321 345 284 225 207 207 210 193 176 194 209 212 212 210 208 207 209 210 210 211 208 202 201 200 196 196 191 189 196 192 182 189 204 214 212 208 215 225 225 220 219 220 221 221 224 232 237 235 236 240 245 248 247 244 242 240 239 238 237 235
218 228 236 245 260 260 261 268 277 298 327 334 331 334 341 355 13 21 17 323 276 273 271 269 267 268 271 275 282 281 272 260 229 218 202 183 170 172 189 204 210 211 211 207 208 213 215 216 215 213 211 213 216 215 203 194 195 189 187 195 204 208 207 205 213 225 225 217 214 216 220 223 224 229 237 238 237 238 244 248 247 244 244 244 242 239 235 233
218 228 236 241 245 251 254 257 261 274 299 320 331 341 345 345 354 6 14 17 4 326 299 288 281 275 270 269 266 258 253 240 218 217 202 184 182 179 183 198 208 212 213 211 210 213 215 216 219 220 218 220 225 226 218 209 204 197 194 196 198 202 207 208 213 224 225 219 213 214 220 225 226 229 234 238 239 238 240 245 244 241 240 239 238 237 234 232
Height
5856 5856 5855 5855 5855 5855 5855 5855 5856 5856 5856 5856 5856 5856 5857 5857 5858 5859 5859 5860 5860 5861 5862 5863 5864 5864 5866 5867 5868 5869 5870 5872 5873 5874 5875 5876 5877 5877 5877 5878 5880 5882 5882 5883 5884 5885 5886 5887 5888 5890 5892 5893 5895 5897 5898 5899 5900 5901 5901 5902 5903 5903 5903 5903 5902 5901 5900 5899 5900 5900 5902 5904 5906 5907 5908 5910 5911 5911 5912 5912 5912 5913 5913 5912 5913 5914 5915 5916
5853 5852 5852 5852 5852 5852 5852 5852 5852 5853 5853 5853 5853 5853 5854 5854 5855 5856 5857 5857 5858 5858 5859 5860 5861 5862 5863 5864 5865 5867 5868 5870 5871 5871 5873 5874 5874 5875 5876 5877 5879 5880 5881 5882 5882 5883 5884 5885 5886 5888 5890 5892 5894 5896 5897 5898 5899 5900 5901 5902 5903 5903 5903 5903 5903 5902 5901 5901 5902 5903 5905 5906 5907 5908 5910 5911 5912 5912 5912 5912 5913 5914 5914 5914 5914 5915 5916 5917
5850 5849 5849 5848 5848 5849 5849 5849 5849 5849 5850 5850 5850 5851 5851 5851 5852 5852 5853 5854 5855 5855 5856 5857 5858 5859 5860 5861 5863 5864 5866 5867 5868 5870 5871 5872 5872 5873 5874 5875 5877 5878 5879 5881 5881 5882 5883 5884 5885 5887 5889 5891 5893 5895 5896 5897 5898 5899 5900 5902 5902 5902 5903 5903 5903 5903 5902 5903 5904 5905 5907 5907 5908 5910 5911 5911 5912 5912 5913 5913 5913 5914 5915 5915 5915 5916 5916 5918
5847 5846 5846 5845 5845 5845 5845 5845 5846 5846 5846 5847 5847 5847 5848 5848 5848 5849 5850 5851 5852 5853 5853 5854 5855 5856 5858 5859 5860 5861 5863 5865 5866 5868 5869 5869 5870 5872 5872 5873 5875 5876 5878 5879 5880 5881 5882 5884 5885 5886 5888 5890 5892 5893 5895 5896 5897 5898 5900 5901 5901 5902 5903 5904 5904 5904 5903 5903 5904 5906 5907 5908 5909 5910 5911 5912 5912 5912 5913 5913 5914 5915 5916 5916 5916 5917 5917 5918
5845 5844 5843 5842 5842 5841 5841 5842 5842 5843 5843 5843 5844 5844 5845 5845 5845 5846 5847 5848 5849 5850 5851 5851 5852 5853 5855 5856 5857 5859 5860 5862 5864 5866 5867 5867 5869 5870 5870 5872 5873 5875 5877 5878 5879 5880 5882 5883 5884 5885 5887 5889 5890 5892 5894 5895 5896 5898 5899 5900 5901 5901 5902 5903 5904 5904 5904 5904 5905 5906 5908 5909 5910 5911 5911 5912 5912 5913 5913 5914 5915 5916 5917 5917 5917 5918 5918 5919
5842 5841 5840 5839 5839 5838 5838 5838 5838 5839 5840 5840 5840 5840 5841 5842 5842 5843 5844 5845 5846 5846 5847 5848 5849 5850 5852 5853 5854 5856 5857 5860 5862 5863 5864 5865 5866 5867 5868 5870 5872 5873 5875 5876 5877 5879 5880 5882 5883 5884 5885 5887 5888 5890 5892 5893 5895 5896 5898 5899 5900 5901 5902 5903 5903 5904 5905 5905 5906 5907 5908 5909 5910 5911 5911 5912 5913 5914 5914 5914 5915 5916 5918 5918 5918 5918 5919 5920
5840 5838 5837 5836 5836 5835 5835 5834 5834 5835 5836 5836 5837 5837 5837 5838 5838 5839 5840 5841 5842 5843 5844 5845 5846 5847 5849 5850 5851 5853 5855 5858 5860 5859 5861 5863 5864 5865 5867 5868 5870 5871 5873 5874 5875 5877 5879 5880 5882 5883 5884 5885 5886 5888 5890 5892 5894 5895 5897 5899 5899 5900 5901 5902 5903 5904 5905 5905 5906 5907 5908 5910 5910 5911 5912 5913 5913 5914 5914 5915 5916 5917 5918 5919 5919 5919 5920 5921
5837 5836 5834 5834 5833 5832 5832 5831 5831 5831 5832 5832 5833 5833 5834 5834 5835 5835 5836 5837 5838 5839 5840 5842 5843 5844 5845 5847 5848 5850 5852 5855 5857 5857 5858 5860 5861 5863 5864 5866 5868 5869 5870 5871 5873 5874 5877 5878 5880 5881 5882 5883 5884 5886 5889 5891 5893 5894 5896 5897 5898 5900 5901 5901 5903 5903 5904 5905 5906 5907 5908 5909 5910 5911 5912 5913 5913 5914 5915 5916 5917 5918 5919 5919 5919 5920 5921 5922
5834 5833 5832 5831 5830 5829 5829 5828 5828 5828 5828 5828 5829 5829 5830 5830 5831 5831 5832 5833 5834 5835 5837 5838 5840 5841 5842 5844 5845 5846 5849 5853 5854 5854 5855 5857 5859 5860 5862 5864 5865 5866 5868 5869 5871 5873 5875 5877 5878 5880 5880 5881 5882 5883 5886 5888 5891 5893 5895 5896 5897 5899 5901 5901 5901 5902 5903 5904 5905 5906 5907 5908 5909 5910 5912 5913 5914 5915 5915 5916 5917 5918 5919 5920 5920 5920 5921 5922
5831 5830 5829 5828 5827 5826 5826 5825 5824 5824 5825 5825 5825 5825 5825 5826 5827 5827 5828 5829 5830 5831 5833 5834 5836 5838 5839 5840 5842 5843 5847 5850 5851 5851 5852 5855 5857 5858 5859 5861 5863 5864 5865 5867 5869 5871 5873 5875 5876 5878 5878 5880 5882 5883 5885 5887 5889 5891 5894 5895 5896 5898 5900 5899 5900 5901 5903 5904 5905 5906 5906 5908 5909 5910 5911 5912 5914 5915 5915 5917 5918 5918 5919 5920 5920 5920 5921 5923
5828 5827 5826 5825 5824 5823 5822 5822 5821 5821 5821 5821 5821 5821 5821 5822 5822 5823 5824 5825 5826 5827 5829 5830 5832 5834 5835 5837 5838 5840 5844 5847 5848 5849 5850 5852 5854 5855 5857 5859 5861 5862 5863 5865 5867 5869 5871 5872 5874 5876 5877 5879 5882 5884 5886 5887 5888 5890 5892 5894 5895 5897 5898 5898 5900 5901 5902 5903 5905 5906 5906 5908 5909 5909 5910 5912 5913 5915 5916 5917 5918 5918 5919 5920 5920 5921 5922 5923
5825 5824 5823 5822 5821 5820 5819 5819 5818 5817 5817 5817 5816 5817 5817 5817 5818 5819 5820 5821 5822 5823 5825 5826 5828 5830 5832 5834 5835 5838 5841 5843 5845 5845 5846 5848 5851 5853 5854 5856 5858 5860 5861 5863 5864 5866 5868 5870 5872 5874 5875 5878 5880 5881 5883 5886 5888 5889 5890 5892 5894 5895 5896 5898 5900 5901 5902 5903 5905 5906 5907 5907 5908 5909 5910 5911 5913 5915 5916 5917 5918 5918 5919 5920 5920 5921 5922 5923
5822 5821 5820 5819 5818 5817 5816 5815 5815 5814 5814 5813 5812 5812 5812 5813 5813 5814 5815 5816 5817 5819 5820 5822 5824 5826 5828 5830 5831 5835 5838 5839 5841 5841 5842 5845 5847 5850 5851 5853 5855 5858 5859 5860 5862 5864 5866 5868 5870 5872 5873 5876 5878 5879 5881 5883 5885 5888 5889 5890 5893 5894 5895 5897 5898 5900 5902 5903 5904 5906 5907 5908 5908 5909 5910 5911 5912 5914 5915 5916 5917 5918 5919 5919 5920 5921 5922 5923
5819 5818 5817 5816 5815 5813 5812 5812 5811 5811 5810 5809 5808 5808 5808 5808 5809 5810 5810 5811 5813 5814 5816 5817 5819 5822 5824 5826 5828 5832 5833 5834 5837 5838 5839 5842 5844 5846 5848 5850 5853 5855 5856 5858 5860 5862 5864 5866 5868 5870 5872 5876 5878 5880 5883 5883 5884 5886 5888 5890 5892 5893 5894 5895 5896 5898 5900 5902 5903 5904 5906 5907 5908 5909 5910 5910 5912 5913 5914 5915 5916 5917 5918 5919 5920 5921 5922 5923
5816 5815 5814 5812 5811 5810 5809 5808 5807 5807 5806 5805 5804 5804 5804 5804 5804 5805 5806 5807 5808 5809 5811 5813 5815 5817 5820 5822 5825 5828 5829 5830 5833 5835 5836 5838 5841 5843 5845 5847 5850 5852 5854 5855 5858 5860 5862 5865 5867 5868 5872 5876 5877 5880 5883 5884 5885 5887 5887 5889 5891 5892 5893 5895 5896 5897 5899 5901 5902 5903 5905 5906 5907 5908 5909 5909 5910 5912 5913 5914 5915 5916 5918 5919 5920 5921 5922 5923
5813 5812 5810 5809 5808 5807 5805 5805 5804 5803 5802 5801 5800 5800 5800 5800 5800 5800 5801 5802 5803 5805 5807 5809 5811 5813 5815 5818 5821 5824 5824 5826 5830 5832 5833 5835 5837 5840 5842 5844 5847 5849 5851 5853 5855 5857 5860 5862 5865 5867 5870 5874 5876 5878 5881 5883 5884 5886 5888 5889 5890 5891 5892 5894 5896 5898 5899 5900 5902 5903 5904 5905 5907 5907 5907 5908 5909 5910 5912 5913 5915 5916 5917 5918 5919 5921 5923 5923
5810 5809 5807 5806 5804 5803 5802 5801 5800 5799 5798 5797 5796 5796 5795 5795 5796 5796 5797 5798 5799 5800 5802 5804 5806 5808 5810 5812 5816 5819 5819 5822 5826 5828 5829 5831 5834 5837 5839 5841 5843 5846 5848 5850 5852 5855 5857 5859 5863 5866 5869 5872 5874 5876 5879 5881 5883 5885 5887 5889 5890 5891 5892 5893 5896 5897 5898 5899 5901 5903 5904 5905 5906 5906 5906 5907 5908 5910 5911 5912 5914 5915 5916 5917 5919 5921 5922 5923
5807 5806 5804 5802 5801 5799 5798 5797 5796 5795 5794 5793 5792 5791 5791 5791 5791 5792 5792 5793 5794 5796 5798 5799 5801 5803 5805 5807 5812 5814 5814 5818 5822 5824 5826 5828 5831 5833 5835 5838 5840 5843 5845 5847 5849 5852 5854 5858 5861 5863 5866 5869 5871 5874 5877 5880 5882 5884 5886 5889 5890 5891 5892 5894 5896 5897 5897 5898 5900 5902 5903 5904 5904 5905 5906 5907 5907 5909 5910 5911 5912 5914 5915 5917 5919 5921 5922 5923
5804 5803 5801 5799 5798 5796 5795 5793 5792 5791 5790 5789 5788 5787 5787 5786 5787 5787 5788 5789 5790 5791 5793 5794 5797 5798 5800 5803 5807 5808 5811 5815 5819 5821 5823 5824 5827 5830 5832 5834 5837 5839 5842 5844 5847 5849 5853 5856 5858 5860 5863 5865 5868 5872 5876 5879 5880 5881 5884 5887 5890 5891 5891 5893 5895 5896 5896 5897 5899 5901 5902 5902 5902 5904 5906 5907 5907 5908 5909 5910 5912 5913 5915 5916 5918 5920 5921 5922
5801 5800 5798 5796 5795 5793 5791 5790 5788 5787 5786 5785 5784 5783 5782 5782 5783 5783 5783 5784 5785 5787 5788 5790 5792 5792 5794 5799 5801 5803 5807 5811 5813 5816 5819 5821 5824 5827 5828 5831 5833 5836 5839 5841 5844 5847 5850 5853 5855 5858 5861 5864 5867 5871 5874 5876 5877 5878 5880 5882 5887 5890 5890 5890 5892 5894 5895 5896 5898 5900 5901 5901 5901 5902 5904 5906 5906 5907 5908 5909 5911 5912 5914 5915 5917 5919 5921 5922
5798 5797 5795 5793 5792 5790 5788 5786 5785 5783 5782 5781 5780 5779 5778 5778 5779 5779 5779 5780 5781 5782 5783 5785 5787 5788 5791 5794 5797 5800 5803 5806 5808 5812 5815 5818 5821 5823 5825 5828 5830 5833 5836 5838 5841 5844 5847 5849 5852 5857 5860 5862 5865 5869 5871 5873 5876 5877 5878 5880 5884 5889 5890 5888 5889 5891 5893 5895 5896 5899 5900 5900 5900 5901 5903 5904 5905 5906 5906 5908 5909 5911 5913 5915 5917 5919 5921 5922
5796 5794 5792 5790 5789 5787 5785 5784 5782 5780 5779 5778 5777 5776 5775 5775 5775 5775 5776 5776 5777 5778 5779 5781 5783 5784 5787 5789 5792 5796 5799 5802 5805 5807 5811 5815 5817 5819 5822 5825 5827 5830 5833 5835 5838 5840 5843 5847 5850 5854 5857 5860 5863 5866 5868 5870 5873 5876 5878 5881 5884 5887 5887 5886 5887 5889 5891 5893 5894 5897 5899 5898 5900 5901 5901 5902 5903 5904 5905 5906 5907 5909 5912 5914 5915 5917 5919 5921
5793 5792 5790 5788 5786 5784 5783 5781 5779 5778 5776 5775 5774 5773 5772 5771 5771 5772 5772 5773 5773 5774 5775 5777 5779 5780 5783 5785 5788 5792 5794 5797 5800 5803 5807 5810 5812 5815 5818 5821 5824 5827 5829 5832 5835 5837 5840 5844 5848 5852 5854 5857 5860 5863 5866 5867 5870 5874 5877 5879 5881 5884 5884 5883 5885 5887 5890 5891 5891 5895 5897 5897 5898 5900 5900 5901 5901 5901 5903 5904 5905 5908 5910 5912 5913 5915 5917 5920
5791 5789 5787 5786 5784 5782 5780 5778 5777 5775 5774 5773 5772 5771 5770 5769 5769 5769 5769 5770 5770 5771 5772 5773 5775 5777 5779 5780 5784 5787 5788 5792 5795 5798 5802 5805 5807 5811 5815 5817 5820 5823 5826 5829 5832 5834 5838 5842 5846 5849 5852 5854 5857 5861 5864 5865 5867 5871 5875 5877 5879 5882 5884 5883 5883 5885 5888 5889 5889 5892 5894 5895 5897 5899 5899 5900 5900 5900 5903 5904 5905 5907 5909 5910 5912 5914 5916 5919
5789 5788 5786 5784 5782 5780 5778 5776 5774 5773 5771 5770 5769 5769 5768 5768 5767 5767 5767 5767 5767 5768 5769 5770 5772 5774 5775 5777 5779 5782 5785 5788 5791 5794 5798 5801 5803 5807 5811 5814 5817 5820 5823 5827 5829 5831 5834 5839 5842 5845 5848 5851 5854 5858 5861 5864 5866 5867 5872 5877 5879 5881 5884 5883 5883 5884 5885 5887 5888 5890 5892 5893 5895 5896 5897 5898 5900 5901 5902 5903 5905 5906 5908 5910 5912 5913 5915 5918
5787 5786 5784 5782 5780 5778 5776 5774 5772 5770 5769 5768 5768 5767 5767 5766 5766 5766 5766 5765 5764 5766 5768 5769 5770 5771 5773 5773 5775 5779 5782 5785 5787 5789 5794 5797 5799 5804 5807 5810 5814 5817 5821 5823 5826 5829 5832 5836 5839 5842 5845 5847 5851 5855 5858 5861 5863 5863 5870 5877 5879 5879 5881 5882 5884 5884 5883 5885 5887 5888 5890 5892 5894 5894 5894 5896 5900 5901 5901 5902 5904 5906 5907 5909 5911 5912 5914 5916
5785 5784 5782 5780 5778 5776 5774 5772 5770 5769 5768 5767 5766 5766 5765 5765 5765 5765 5764 5764 5763 5764 5767 5768 5769 5769 5770 5771 5773 5776 5778 5781 5784 5786 5791 5795 5796 5799 5803 5806 5811 5814 5818 5820 5822 5825 5829 5833 5836 5839 5842 5845 5848 5852 5855 5857 5859 5862 5870 5876 5877 5876 5878 5881 5883 5884 5883 5884 5885 5887 5888 5890 5892 5892 5892 5894 5898 5900 5901 5902 5903 5904 5906 5907 5909 5911 5912 5915
5783 5782 5780 5779 5777 5775 5772 5770 5768 5767 5765 5765 5764 5764 5764 5764 5764 5764 5763 5763 5763 5764 5766 5767 5768 5768 5769 5771 5773 5773 5775 5779 5782 5782 5786 5792 5793 5796 5800 5804 5807 5809 5813 5817 5820 5823 5826 5830 5833 5837 5839 5841 5845 5849 5852 5855 5857 5863 5869 5872 5875 5877 5878 5879 5881 5882 5883 5883 5883 5884 5885 5888 5890 5891 5892 5893 5896 5899 5900 5901 5902 5903 5904 5906 5908 5910 5913 5915
5782 5780 5779 5777 5775 5773 5771 5769 5767 5765 5764 5763 5763 5763 5763 5762 5762 5762 5762 5762 5763 5764 5765 5767 5767 5767 5768 5770 5771 5772 5774 5777 5778 5777 5782 5788 5789 5792 5796 5799 5803 5805 5808 5812 5817 5821 5824 5828 5831 5834 5836 5838 5842 5847 5850 5853 5856 5860 5865 5868 5871 5874 5877 5879 5880 5880 5881 5882 5882 5882 5883 5885 5887 5890 5892 5894 5895 5897 5898 5900 5901 5903 5904 5906 5908 5910 5912 5914
5780 5779 5777 5776 5774 5772 5769 5767 5765 5764 5763 5762 5762 5761 5761 5761 5761 5761 5761 5762 5763 5764 5765 5766 5766 5766 5768 5769 5770 5772 5773 5775 5775 5775 5779 5783 5785 5789 5794 5796 5799 5803 5806 5808 5812 5816 5820 5824 5828 5831 5834 5837 5840 5843 5845 5849 5852 5856 5862 5865 5865 5868 5872 5875 5877 5878 5878 5879 5881 5883 5883 5883 5885 5887 5891 5894 5895 5896 5897 5898 5900 5901 5903 5905 5907 5909 5911 5912
5779 5778 5776 5775 5773 5771 5768 5766 5764 5763 5762 5761 5760 5759 5759 5759 5759 5760 5761 5762 5763 5764 5765 5765 5765 5766 5767 5768 5769 5771 5772 5774 5775 5776 5779 5781 5784 5787 5791 5794 5797 5801 5804 5808 5811 5813 5815 5819 5824 5828 5831 5834 5836 5838 5841 5845 5849 5853 5858 5863 5864 5866 5869 5871 5873 5875 5876 5878 5881 5883 5883 5883 5883 5883 5887 5892 5894 5895 5896 5897 5899 5900 5902 5904 5906 5908 5909 5911
5778 5776 5775 5774 5772 5770 5768 5766 5764 5762 5761 5761 5760 5759 5758 5758 5759 5760 5762 5763 5764 5764 5765 5766 5765 5765 5766 5767 5769 5771 5772 5774 5776 5777 5779 5780 5783 5786 5789 5791 5794 5799 5804 5808 5811 5814 5815 5817 5822 5825 5827 5829 5832 5834 5838 5843 5847 5851 5855 5859 5863 5866 5867 5868 5870 5872 5874 5877 5880 5881 5882 5881 5880 5880 5884 5888 5892 5893 5895 5896 5898 5900 5902 5903 5905 5907 5908 5910
5776 5775 5774 5773 5771 5769 5766 5764 5762 5761 5761 5760 5760 5760 5759 5759 5760 5760 5761 5763 5765 5765 5766 5767 5766 5766 5766 5767 5769 5771 5773 5775 5776 5777 5779 5781 5783 5785 5787 5790 5793 5798 5803 5806 5810 5814 5816 5818 5821 5824 5824 5826 5829 5831 5836 5841 5844 5848 5852 5856 5860 5862 5864 5866 5867 5868 5871 5875 5880 5881 5880 5878 5877 5879 5882 5885 5889 5892 5893 5894 5896 5899 5901 5903 5904 5906 5907 5909
5775 5774 5773 5772 5770 5768 5766 5763 5762 5761 5761 5760 5760 5760 5760 5760 5760 5760 5761 5762 5764 5766 5767 5767 5767 5767 5767 5768 5770 5773 5774 5775 5776 5778 5779 5781 5783 5785 5787 5790 5793 5798 5801 5803 5806 5811 5814 5817 5819 5821 5821 5822 5826 5829 5833 5839 5841 5845 5850 5853 5857 5860 5862 5863 5864 5866 5869 5874 5879 5880 5878 5876 5877 5879 5881 5884 5887 5889 5891 5893 5895 5897 5900 5902 5903 5904 5907 5909
5774 5773 5772 5771 5769 5767 5765 5762 5761 5761 5760 5760 5760 5760 5760 5760 5760 5761 5762 5762 5763 5764 5765 5766 5767 5767 5769 5769 5770 5773 5774 5775 5776 5778 5779 5781 5784 5786 5788 5790 5793 5797 5798 5799 5802 5804 5808 5813 5816 5820 5820 5820 5823 5827 5830 5835 5838 5843 5848 5850 5853 5856 5859 5862 5864 5867 5871 5874 5877 5877 5875 5875 5876 5877 5878 5881 5883 5885 5889 5891 5893 5896 5898 5900 5901 5903 5905 5907
5773 5772 5772 5770 5768 5767 5764 5762 5761 5761 5760 5760 5761 5760 5760 5760 5760 5760 5761 5762 5762 5762 5762 5764 5765 5766 5768 5769 5771 5772 5772 5773 5775 5778 5780 5781 5783 5784 5785 5789 5793 5794 5792 5794 5798 5800 5802 5807 5811 5816 5819 5820 5822 5825 5829 5832 5835 5840 5844 5847 5851 5855 5858 5862 5865 5868 5870 5873 5874 5873 5872 5873 5874 5875 5876 5879 5880 5883 5886 5889 5892 5894 5896 5898 5900 5902 5904 5906
5772 5772 5771 5769 5768 5767 5765 5763 5762 5761 5760 5760 5760 5760 5760 5760 5760 5760 5760 5761 5761 5761 5761 5762 5764 5764 5765 5767 5768 5769 5770 5772 5774 5776 5778 5779 5780 5780 5781 5783 5786 5785 5786 5790 5794 5796 5798 5803 5808 5810 5814 5818 5820 5824 5828 5830 5833 5837 5842 5847 5851 5853 5856 5860 5863 5865 5867 5870 5870 5870 5871 5872 5873 5874 5876 5879 5880 5882 5885 5887 5890 5892 5894 5896 5898 5900 5903 5905
5772 5771 5770 5769 5768 5766 5764 5762 5762 5761 5761 5760 5760 5760 5759 5759 5759 5759 5760 5760 5760 5760 5761 5762 5762 5763 5763 5764 5766 5767 5768 5770 5773 5774 5773 5772 5774 5775 5776 5777 5778 5778 5782 5787 5791 5794 5799 5805 5808 5810 5814 5817 5817 5822 5827 5828 5830 5835 5839 5845 5848 5850 5853 5856 5858 5860 5864 5867 5867 5867 5868 5869 5870 5872 5873 5876 5879 5881 5883 5885 5887 5890 5892 5895 5897 5899 5900 5902
5771 5770 5769 5768 5767 5765 5763 5763 5762 5762 5761 5761 5761 5760 5759 5758 5759 5759 5760 5760 5760 5760 5761 5761 5761 5762 5763 5763 5765 5766 5766 5768 5769 5769 5768 5770 5771 5772 5773 5775 5776 5778 5783 5787 5789 5794 5799 5803 5806 5809 5813 5814 5815 5819 5824 5828 5830 5833 5836 5841 5844 5847 5849 5852 5855 5858 5861 5863 5864 5863 5863 5862 5864 5868 5869 5871 5876 5878 5880 5883 5886 5889 5892 5894 5895 5896 5897 5899
5770 5769 5768 5767 5766 5765 5763 5763 5762 5762 5761 5761 5761 5760 5759 5759 5759 5759 5759 5760 5760 5760 5760 5760 5761 5762 5762 5763 5763 5763 5764 5766 5766 5767 5768 5770 5770 5771 5773 5775 5778 5781 5785 5788 5789 5792 5796 5799 5802 5807 5808 5808 5813 5817 5822 5827 5832 5834 5836 5838 5840 5844 5847 5851 5854 5856 5858 5860 5860 5860 5860 5861 5863 5867 5866 5866 5870 5874 5878 5882 5885 5887 5890 5891 5892 5894 5895 5896
5769 5768 5768 5767 5765 5764 5763 5763 5762 5761 5760 5760 5761 5760 5760 5759 5758 5758 5759 5760 5760 5760 5760 5760 5761 5762 5761 5762 5762 5762 5762 5762 5764 5767 5769 5769 5770 5771 5774 5776 5778 5781 5784 5786 5786 5789 5794 5796 5799 5803 5804 5806 5810 5815 5819 5824 5828 5833 5836 5837 5838 5841 5845 5849 5852 5854 5857 5858 5857 5857 5859 5859 5862 5865 5865 5864 5865 5870 5875 5880 5883 5885 5887 5888 5890 5891 5892 5894
5768 5767 5767 5766 5765 5764 5763 5762 5761 5760 5759 5760 5760 5760 5759 5759 5759 5759 5759 5759 5759 5759 5759 5760 5761 5761 5761 5762 5762 5763 5762 5761 5763 5766 5767 5768 5770 5771 5773 5775 5776 5779 5781 5782 5784 5789 5795 5798 5799 5800 5801 5803 5807 5811 5817 5821 5824 5828 5832 5836 5838 5840 5842 5846 5849 5853 5854 5853 5853 5854 5856 5856 5858 5861 5862 5862 5863 5867 5872 5876 5879 5883 5884 5885 5886 5888 5890 5892
5767 5767 5766 5766 5765 5764 5763 5762 5761 5760 5760 5760 5760 5759 5759 5759 5759 5759 5759 5759 5759 5759 5759 5760 5760 5761 5761 5761 5762 5763 5762 5762 5764 5765 5765 5766 5768 5769 5771 5773 5774 5778 5781 5783 5786 5791 5795 5797 5799 5800 5802 5805 5807 5810 5816 5820 5821 5823 5827 5832 5836 5839 5842 5844 5846 5849 5849 5848 5849 5851 5852 5853 5855 5857 5859 5860 5860 5863 5869 5874 5876 5878 5880 5881 5883 5885 5887 5890
5765 5766 5766 5765 5764 5763 5763 5762 5762 5761 5761 5760 5759 5759 5759 5759 5759 5759 5759 5759 5758 5759 5759 5759 5759 5760 5761 5761 5761 5761 5761 5762 5763 5764 5765 5766 5767 5769 5770 5771 5773 5777 5780 5782 5786 5790 5791 5793 5795 5798 5802 5806 5807 5810 5815 5818 5819 5820 5822 5827 5832 5837 5840 5842 5844 5846 5845 5843 5845 5848 5848 5850 5852 5854 5856 5857 5856 5858 5864 5871 5873 5874 5877 5878 5880 5882 5884 5886
5764 5765 5765 5764 5764 5763 5763 5762 5762 5762 5761 5760 5759 5759 5758 5758 5759 5759 5759 5759 5759 5759 5759 5759 5759 5760 5760 5760 5760 5760 5759 5759 5761 5763 5765 5765 5767 5769 5769 5770 5772 5775 5777 5780 5783 5785 5787 5790 5793 5795 5797 5800 5803 5807 5811 5814 5817 5819 5821 5826 5832 5835 5836 5837 5840 5842 5841 5840 5842 5845 5846 5847 5850 5852 5853 5853 5853 5854 5859 5865 5869 5871 5873 5875 5877 5879 5881 5883
5763 5764 5763 5763 5763 5763 5763 5762 5762 5762 5761 5761 5760 5759 5758 5758 5758 5758 5759 5759 5759 5759 5759 5759 5759 5759 5759 5759 5759 5759 5758 5759 5760 5763 5764 5764 5765 5767 5768 5769 5771 5773 5775 5778 5780 5782 5785 5790 5794 5795 5796 5797 5800 5804 5807 5809 5812 5816 5820 5825 5829 5830 5830 5832 5836 5837 5836 5836 5839 5841 5842 5844 5847 5849 5849 5850 5851 5851 5854 5860 5864 5867 5869 5871 5874 5876 5878 5880
5763 5763 5763 5763 5763 5762 5762 5762 5762 5761 5761 5761 5760 5759 5758 5757 5757 5758 5759 5759 5759 5759 5759 5759 5759 5759 5759 5759 5759 5759 5759 5759 5760 5762 5763 5763 5763 5764 5766 5768 5770 5771 5773 5775 5778 5780 5784 5788 5792 5794 5795 5797 5798 5800 5803 5806 5808 5811 5816 5821 5823 5824 5826 5830 5832 5831 5830 5832 5834 5837 5839 5841 5844 5845 5846 5848 5848 5848 5850 5856 5860 5863 5866 5868 5871 5874 5876 5878
5763 5763 5763 5763 5762 5762 5762 5762 5762 5761 5761 5760 5760 5759 5758 5757 5757 5757 5758 5759 5759 5759 5759 5759 5759 5758 5758 5758 5759 5759 5759 5760 5760 5761 5762 5762 5762 5763 5765 5767 5768 5770 5772 5775 5777 5779 5782 5785 5787 5789 5792 5794 5795 5796 5799 5802 5804 5807 5812 5817 5820 5820 5821 5824 5827 5827 5827 5829 5831 5834 5837 5838 5841 5842 5843 5845 5845 5845 5847 5853 5858 5860 5862 5865 5868 5870 5873 5876
5762 5762 5762 5762 5762 5762 5762 5762 5762 5761 5761 5760 5760 5759 5758 5757 5757 5757 5757 5758 5759 5759 5759 5759 5759 5758 5758 5758 5759 5759 5759 5760 5760 5761 5761 5761 5762 5762 5763 5765 5766 5769 5771 5774 5776 5777 5780 5781 5783 5786 5789 5791 5793 5794 5795 5799 5801 5805 5810 5814 5815 5813 5813 5818 5822 5822 5823 5826 5830 5833 5836 5837 5839 5840 5841 5842 5842 5842 5845 5849 5854 5857 5858 5861 5864 5867 5870 5873
5761 5761 5761 5762 5762 5762 5762 5762 5761 5761 5760 5760 5760 5759 5759 5758 5757 5757 5757 5757 5758 5758 5758 5759 5759 5759 5758 5758 5759 5759 5760 5760 5760 5760 5761 5762 5762 5762 5763 5764 5766 5768 5770 5772 5774 5776 5777 5779 5782 5785 5789 5791 5793 5793 5794 5797 5800 5803 5806 5806 5807 5809 5813 5818 5820 5818 5819 5824 5829 5831 5833 5835 5837 5838 5837 5838 5839 5842 5844 5847 5850 5853 5855 5857 5860 5863 5865 5868
5760 5760 5760 5761 5761 5762 5762 5761 5761 5761 5760 5760 5760 5759 5759 5758 5758 5757 5757 5757 5757 5757 5758 5758 5758 5758 5758 5758 5759 5759 5760 5760 5760 5760 5761 5762 5763 5762 5763 5764 5765 5766 5768 5770 5773 5774 5775 5778 5781 5784 5787 5790 5791 5792 5795 5797 5799 5802 5802 5802 5805 5810 5814 5817 5816 5813 5814 5820 5826 5828 5829 5831 5834 5835 5834 5835 5837 5840 5842 5845 5848 5851 5852 5854 5856 5859 5861 5864
5759 5759 5760 5760 5760 5761 5761 5761 5761 5761 5760 5760 5760 5759 5759 5759 5758 5758 5757 5757 5757 5757 5757 5757 5757 5758 5758 5758 5758 5759 5759 5760 5760 5760 5761 5762 5762 5762 5763 5763 5763 5765 5766 5768 5770 5772 5774 5777 5779 5781 5784 5787 5788 5789 5792 5795 5797 5799 5799 5800 5804 5808 5811 5813 5811 5809 5809 5816 5823 5825 5825 5827 5830 5831 5831 5832 5835 5838 5840 5842 5846 5849 5850 5852 5853 5855 5858 5860